,,,PA_Meas_PMT16A,,PR_Meas_QMR101_102,,RH_Meas_QMH101,,SR_Meas_QMS101,,TA_Meas_QMH101,,GenWind,,GenWind,
date,time,status,PA,status,PR,status,RH,status,SR,status,TA,status,DirAvg,status,SpdAvg,
2011-09-20, 00:00:05,VALID,1005.89,VALID,0,INVALID,163.716,VALID,0,VALID,24.4628,VALID,360,VALID,0,
2011-09-20, 00:01:05,VALID,1005.9,VALID,0,INVALID,163.746,VALID,0,VALID,24.4628,VALID,360,VALID,0,
2011-09-20, 00:02:05,VALID,1005.88,VALID,0,INVALID,163.746,VALID,0,VALID,24.4433,VALID,357,VALID,0,
2011-09-20, 00:03:05,VALID,1005.84,VALID,0,INVALID,163.754,VALID,0,VALID,24.4433,VALID,350,VALID,0,
2011-09-20, 00:04:05,VALID,1005.84,VALID,0,INVALID,163.723,VALID,0,VALID,24.4238,VALID,346,VALID,0,
2011-09-20, 00:05:05,VALID,1005.82,VALID,0,INVALID,163.746,VALID,0,VALID,24.4238,VALID,349,VALID,0,
2011-09-20, 00:06:05,VALID,1005.81,VALID,0,INVALID,163.746,VALID,0,VALID,24.3849,VALID,353,VALID,0,
2011-09-20, 00:07:05,VALID,1005.79,VALID,0,INVALID,163.731,VALID,0,VALID,24.3849,VALID,353,VALID,0,
2011-09-20, 00:08:05,VALID,1005.79,VALID,0,INVALID,163.754,VALID,0,VALID,24.3441,VALID,353,VALID,0,
2011-09-20, 00:09:05,VALID,1005.72,VALID,0,INVALID,163.731,VALID,0,VALID,24.3265,VALID,353,VALID,0,
2011-09-20, 00:10:05,VALID,1005.71,VALID,0,INVALID,163.731,VALID,0,VALID,24.307,VALID,346,VALID,0,
2011-09-20, 00:11:05,VALID,1005.72,VALID,0,INVALID,163.754,VALID,0,VALID,24.2875,VALID,338,VALID,0,
2011-09-20, 00:12:05,VALID,1005.69,VALID,0,INVALID,163.777,VALID,0,VALID,24.2681,VALID,348,VALID,0,
2011-09-20, 00:13:05,VALID,1005.69,VALID,0,INVALID,163.754,VALID,0,VALID,24.2681,VALID,348,VALID,0,
2011-09-20, 00:14:05,VALID,1005.66,VALID,0,INVALID,163.754,VALID,0,VALID,24.2486,VALID,348,VALID,0,
2011-09-20, 00:15:05,VALID,1005.65,VALID,0,INVALID,163.731,VALID,0,VALID,24.2699,VALID,348,VALID,0,
2011-09-20, 00:16:05,VALID,1005.64,VALID,0,INVALID,163.754,VALID,0,VALID,24.2273,VALID,347,VALID,0,
2011-09-20, 00:17:05,VALID,1005.61,VALID,0,INVALID,163.731,VALID,0,VALID,24.2291,VALID,347,VALID,0,
2011-09-20, 00:18:05,VALID,1005.62,VALID,0,INVALID,163.777,VALID,0,VALID,24.2273,VALID,347,VALID,0,
2011-09-20, 00:19:05,VALID,1005.6,VALID,0,INVALID,163.731,VALID,0,VALID,24.2273,VALID,1,VALID,0,
2011-09-20, 00:20:05,VALID,1005.6,VALID,0,INVALID,163.746,VALID,0,VALID,24.2681,VALID,1,VALID,0,
2011-09-20, 00:21:05,VALID,1005.57,VALID,0,INVALID,163.746,VALID,0,VALID,24.2273,VALID,1,VALID,0,
2011-09-20, 00:22:05,VALID,1005.53,VALID,0,INVALID,163.762,VALID,0,VALID,24.2468,VALID,356,VALID,0,
2011-09-20, 00:23:05,VALID,1005.52,VALID,0,INVALID,163.762,VALID,0,VALID,24.2486,VALID,353,VALID,0,
2011-09-20, 00:24:05,VALID,1005.5,VALID,0,INVALID,163.746,VALID,0,VALID,24.2681,VALID,353,VALID,0,
2011-09-20, 00:25:05,VALID,1005.46,VALID,0,INVALID,163.754,VALID,0,VALID,24.2662,VALID,347,VALID,0,
2011-09-20, 00:26:05,VALID,1005.43,VALID,0,INVALID,163.754,VALID,0,VALID,24.2662,VALID,354,VALID,0,
2011-09-20, 00:27:05,VALID,1005.37,VALID,0,INVALID,163.739,VALID,0,VALID,24.2857,VALID,351,VALID,0,
2011-09-20, 00:28:05,VALID,1005.37,VALID,0,INVALID,163.723,VALID,0,VALID,24.2857,VALID,353,VALID,0,
2011-09-20, 00:29:05,VALID,1005.34,VALID,0,INVALID,163.739,VALID,0,VALID,24.3265,VALID,3,VALID,0,
2011-09-20, 00:30:05,VALID,1005.32,VALID,0,INVALID,163.731,VALID,0,VALID,24.3052,VALID,345,VALID,0,
2011-09-20, 00:31:05,VALID,1005.27,VALID,0,INVALID,163.746,VALID,0,VALID,24.3459,VALID,340,VALID,0,
2011-09-20, 00:32:05,VALID,1005.27,VALID,0,INVALID,163.731,VALID,0,VALID,24.3654,VALID,6,VALID,0,
2011-09-20, 00:33:05,VALID,1005.24,VALID,0,INVALID,163.746,VALID,0,VALID,24.3441,VALID,298,VALID,0,
2011-09-20, 00:34:05,VALID,1005.21,VALID,0,INVALID,163.739,VALID,0,VALID,24.3654,VALID,329,VALID,0,
2011-09-20, 00:35:05,VALID,1005.17,VALID,0,INVALID,163.739,VALID,0,VALID,24.3654,VALID,360,VALID,0,
2011-09-20, 00:36:05,VALID,1005.2,VALID,0,INVALID,163.708,VALID,0,VALID,24.3459,VALID,360,VALID,0,
2011-09-20, 00:37:05,VALID,1005.15,VALID,0,INVALID,163.746,VALID,0,VALID,24.3459,VALID,356,VALID,0,
2011-09-20, 00:38:05,VALID,1005.16,VALID,0,INVALID,163.716,VALID,0,VALID,24.3052,VALID,348,VALID,0,
2011-09-20, 00:39:05,VALID,1005.15,VALID,0,INVALID,163.739,VALID,0,VALID,24.3459,VALID,341,VALID,0,
2011-09-20, 00:40:05,VALID,1005.15,VALID,0,INVALID,163.723,VALID,0,VALID,24.3052,VALID,334,VALID,0,
2011-09-20, 00:41:05,VALID,1005.14,VALID,0,INVALID,163.754,VALID,0,VALID,24.3265,VALID,357,VALID,0,
2011-09-20, 00:42:05,VALID,1005.1,VALID,0,INVALID,163.746,VALID,0,VALID,24.3246,VALID,329,VALID,0,
2011-09-20, 00:43:05,VALID,1005.1,VALID,0,INVALID,163.769,VALID,0,VALID,24.3246,VALID,334,VALID,0,
2011-09-20, 00:44:05,VALID,1005.05,VALID,0,INVALID,163.731,VALID,0,VALID,24.3052,VALID,353,VALID,0,
2011-09-20, 00:45:05,VALID,1005.05,VALID,0,INVALID,163.754,VALID,0,VALID,24.307,VALID,337,VALID,0,
2011-09-20, 00:46:05,VALID,1005.04,VALID,0,INVALID,163.762,VALID,0,VALID,24.3052,VALID,330,VALID,0,
2011-09-20, 00:47:05,VALID,1005.05,VALID,0,INVALID,163.746,VALID,0,VALID,24.307,VALID,337,VALID,0,
2011-09-20, 00:48:05,VALID,1005.05,VALID,0,INVALID,163.754,VALID,0,VALID,24.307,VALID,348,VALID,0,
2011-09-20, 00:49:05,VALID,1005.02,VALID,0,INVALID,163.769,VALID,0,VALID,24.2449,VALID,348,VALID,0,
2011-09-20, 00:50:05,VALID,1005.04,VALID,0,INVALID,163.746,VALID,0,VALID,24.2857,VALID,284,VALID,0,
2011-09-20, 00:51:05,VALID,1005,VALID,0,INVALID,163.746,VALID,0,VALID,24.3052,VALID,350,VALID,0,
2011-09-20, 00:52:05,VALID,1005.01,VALID,0,INVALID,163.754,VALID,0,VALID,24.3265,VALID,1,VALID,0,
2011-09-20, 00:53:05,VALID,1005.01,VALID,0,INVALID,163.723,VALID,0,VALID,24.3052,VALID,350,VALID,0,
2011-09-20, 00:54:05,VALID,1005,VALID,0,INVALID,163.739,VALID,0,VALID,24.3459,VALID,337,VALID,0,
2011-09-20, 00:55:05,VALID,1004.98,VALID,0,INVALID,163.739,VALID,0,VALID,24.3052,VALID,309,VALID,0,
2011-09-20, 00:56:05,VALID,1004.98,VALID,0,INVALID,163.731,VALID,0,VALID,24.3052,VALID,341,VALID,0,
2011-09-20, 00:57:05,VALID,1004.96,VALID,0,INVALID,163.716,VALID,0,VALID,24.3265,VALID,323,VALID,0,
2011-09-20, 00:58:05,VALID,1004.97,VALID,0,INVALID,163.762,VALID,0,VALID,24.3052,VALID,344,VALID,0,
2011-09-20, 00:59:05,VALID,1004.95,VALID,0,INVALID,163.746,VALID,0,VALID,24.3246,VALID,354,VALID,0,
2011-09-20, 01:00:05,VALID,1004.95,VALID,0,INVALID,163.762,VALID,0,VALID,24.3246,VALID,347,VALID,0,
2011-09-20, 01:01:05,VALID,1004.94,VALID,0,INVALID,163.777,VALID,0,VALID,24.3441,VALID,324,VALID,0,
2011-09-20, 01:02:05,VALID,1004.92,VALID,0,INVALID,163.739,VALID,0,VALID,24.3441,VALID,340,VALID,0,
2011-09-20, 01:03:05,VALID,1004.91,VALID,0,INVALID,163.762,VALID,0.100563,VALID,24.3441,VALID,312,VALID,0,
2011-09-20, 01:04:05,VALID,1004.9,VALID,0,INVALID,163.746,VALID,0,VALID,24.3441,VALID,338,VALID,0,
2011-09-20, 01:05:05,VALID,1004.87,VALID,0,INVALID,163.746,VALID,0.100563,VALID,24.3246,VALID,347,VALID,0,
2011-09-20, 01:06:05,VALID,1004.89,VALID,0,INVALID,163.784,VALID,0,VALID,24.3265,VALID,359,VALID,0,
2011-09-20, 01:07:05,VALID,1004.91,VALID,0,INVALID,163.784,VALID,0,VALID,24.3265,VALID,360,VALID,0,
2011-09-20, 01:08:05,VALID,1004.89,VALID,0,INVALID,163.731,VALID,0,VALID,24.3052,VALID,357,VALID,0,
2011-09-20, 01:09:05,VALID,1004.89,VALID,0,INVALID,163.777,VALID,0.100563,VALID,24.2857,VALID,356,VALID,0,
2011-09-20, 01:10:05,VALID,1004.86,VALID,0,INVALID,163.754,VALID,0,VALID,24.2857,VALID,322,VALID,0,
2011-09-20, 01:11:05,VALID,1004.89,VALID,0,INVALID,163.754,VALID,0.100563,VALID,24.2857,VALID,332,VALID,0,
2011-09-20, 01:12:05,VALID,1004.86,VALID,0,INVALID,163.746,VALID,0,VALID,24.2857,VALID,358,VALID,0,
2011-09-20, 01:13:05,VALID,1004.87,VALID,0,INVALID,163.746,VALID,0.100563,VALID,24.2875,VALID,5,VALID,0,
2011-09-20, 01:14:05,VALID,1004.86,VALID,0,INVALID,163.762,VALID,0.100563,VALID,24.2857,VALID,331,VALID,0,
2011-09-20, 01:15:05,VALID,1004.88,VALID,0,INVALID,163.746,VALID,0,VALID,24.2875,VALID,341,VALID,0,
2011-09-20, 01:16:05,VALID,1004.84,VALID,0,INVALID,163.777,VALID,0,VALID,24.2662,VALID,344,VALID,0,
2011-09-20, 01:17:05,VALID,1004.85,VALID,0,INVALID,163.754,VALID,0,VALID,24.2468,VALID,346,VALID,0,
2011-09-20, 01:18:05,VALID,1004.84,VALID,0,INVALID,163.746,VALID,0,VALID,24.2468,VALID,357,VALID,0,
2011-09-20, 01:19:05,VALID,1004.87,VALID,0,INVALID,163.754,VALID,0,VALID,24.2273,VALID,344,VALID,0,
2011-09-20, 01:20:05,VALID,1004.86,VALID,0,INVALID,163.746,VALID,0,VALID,24.2273,VALID,352,VALID,0,
2011-09-20, 01:21:05,VALID,1004.86,VALID,0,INVALID,163.746,VALID,0,VALID,24.2291,VALID,341,VALID,0,
2011-09-20, 01:22:05,VALID,1004.85,VALID,0,INVALID,163.754,VALID,0,VALID,24.2078,VALID,349,VALID,0,
2011-09-20, 01:23:05,VALID,1004.84,VALID,0,INVALID,163.746,VALID,0,VALID,24.2078,VALID,338,VALID,0,
2011-09-20, 01:24:05,VALID,1004.84,VALID,0,INVALID,163.739,VALID,0,VALID,24.2078,VALID,347,VALID,0,
2011-09-20, 01:25:05,VALID,1004.81,VALID,0,INVALID,163.739,VALID,0.100563,VALID,24.1884,VALID,333,VALID,0,
2011-09-20, 01:26:05,VALID,1004.82,VALID,0,INVALID,163.762,VALID,0.100563,VALID,24.1884,VALID,346,VALID,0,
2011-09-20, 01:27:05,VALID,1004.84,VALID,0,INVALID,163.754,VALID,0,VALID,24.1689,VALID,346,VALID,0,
2011-09-20, 01:28:05,VALID,1004.84,VALID,0,INVALID,163.739,VALID,0,VALID,24.1689,VALID,346,VALID,0,
2011-09-20, 01:29:05,VALID,1004.82,VALID,0,INVALID,163.754,VALID,0,VALID,24.1707,VALID,346,VALID,0,
2011-09-20, 01:30:05,VALID,1004.83,VALID,0,INVALID,163.746,VALID,0,VALID,24.1494,VALID,346,VALID,0,
2011-09-20, 01:31:05,VALID,1004.83,VALID,0,INVALID,163.769,VALID,0.100563,VALID,24.13,VALID,346,VALID,0,
2011-09-20, 01:32:05,VALID,1004.83,VALID,0,INVALID,163.777,VALID,0,VALID,24.13,VALID,346,VALID,0,
2011-09-20, 01:33:05,VALID,1004.81,VALID,0,INVALID,163.754,VALID,0,VALID,24.1318,VALID,346,VALID,0,
2011-09-20, 01:34:05,VALID,1004.85,VALID,0,INVALID,163.762,VALID,0,VALID,24.13,VALID,346,VALID,0,
2011-09-20, 01:35:05,VALID,1004.83,VALID,0,INVALID,163.777,VALID,0,VALID,24.1105,VALID,352,VALID,0,
2011-09-20, 01:36:05,VALID,1004.87,VALID,0,INVALID,163.754,VALID,0.100563,VALID,24.1105,VALID,3,VALID,0,
2011-09-20, 01:37:05,VALID,1004.86,VALID,0,INVALID,163.754,VALID,0,VALID,24.1318,VALID,3,VALID,0,
2011-09-20, 01:38:05,VALID,1004.85,VALID,0,INVALID,163.762,VALID,0,VALID,24.091,VALID,3,VALID,0,
2011-09-20, 01:39:04,VALID,1004.84,VALID,0,INVALID,163.762,VALID,0,VALID,24.0716,VALID,2,VALID,0,
2011-09-20, 01:40:04,VALID,1004.84,VALID,0,INVALID,163.777,VALID,0.100563,VALID,24.0503,VALID,360,VALID,0,
2011-09-20, 01:41:04,VALID,1004.87,VALID,0,INVALID,163.769,VALID,0,VALID,24.0326,VALID,360,VALID,0,
2011-09-20, 01:42:04,VALID,1004.85,VALID,0,INVALID,163.739,VALID,0.100563,VALID,24.0326,VALID,360,VALID,0,
2011-09-20, 01:43:04,VALID,1004.87,VALID,0,INVALID,163.769,VALID,0,VALID,24.0345,VALID,360,VALID,0,
2011-09-20, 01:44:04,VALID,1004.82,VALID,0,INVALID,163.754,VALID,0.100563,VALID,24.0326,VALID,360,VALID,0,
2011-09-20, 01:45:04,VALID,1004.84,VALID,0,INVALID,163.784,VALID,0,VALID,23.9937,VALID,360,VALID,0,
2011-09-20, 01:46:04,VALID,1004.87,VALID,0,INVALID,163.769,VALID,0,VALID,23.9937,VALID,360,VALID,0,
2011-09-20, 01:47:04,VALID,1004.83,VALID,0,INVALID,163.784,VALID,0,VALID,23.9937,VALID,355,VALID,0,
2011-09-20, 01:48:04,VALID,1004.84,VALID,0,INVALID,163.8,VALID,0.100563,VALID,23.9724,VALID,299,VALID,0,
2011-09-20, 01:49:04,VALID,1004.83,VALID,0,INVALID,163.746,VALID,0,VALID,23.953,VALID,298,VALID,0,
2011-09-20, 01:50:04,VALID,1004.83,VALID,0,INVALID,163.777,VALID,0,VALID,23.9742,VALID,299,VALID,0,
2011-09-20, 01:51:04,VALID,1004.79,VALID,0,INVALID,163.769,VALID,0.100563,VALID,23.9937,VALID,299,VALID,0,
2011-09-20, 01:52:04,VALID,1004.79,VALID,0,INVALID,163.784,VALID,0,VALID,23.9742,VALID,331,VALID,0,
2011-09-20, 01:53:04,VALID,1004.8,VALID,0,INVALID,163.754,VALID,0.100563,VALID,23.9937,VALID,332,VALID,0,
2011-09-20, 01:54:04,VALID,1004.8,VALID,0,INVALID,163.762,VALID,0,VALID,23.9919,VALID,332,VALID,0,
2011-09-20, 01:55:04,VALID,1004.8,VALID,0,INVALID,163.762,VALID,0,VALID,24.0132,VALID,332,VALID,0,
2011-09-20, 01:56:04,VALID,1004.8,VALID,0,INVALID,163.777,VALID,0.100563,VALID,24.0132,VALID,332,VALID,0,
2011-09-20, 01:57:04,VALID,1004.8,VALID,0,INVALID,163.792,VALID,0.100563,VALID,23.9937,VALID,332,VALID,0,
2011-09-20, 01:58:04,VALID,1004.75,VALID,0,INVALID,163.777,VALID,0,VALID,23.9724,VALID,332,VALID,0,
2011-09-20, 01:59:04,VALID,1004.77,VALID,0,INVALID,163.762,VALID,0,VALID,23.9937,VALID,332,VALID,0,
2011-09-20, 02:00:04,VALID,1004.75,VALID,0,INVALID,163.769,VALID,0,VALID,23.9742,VALID,332,VALID,0,
2011-09-20, 02:01:04,VALID,1004.73,VALID,0,INVALID,163.792,VALID,0,VALID,23.9548,VALID,332,VALID,0,
2011-09-20, 02:02:04,VALID,1004.71,VALID,0,INVALID,163.754,VALID,0,VALID,23.9548,VALID,332,VALID,0,
2011-09-20, 02:03:04,VALID,1004.7,VALID,0,INVALID,163.792,VALID,0,VALID,23.9761,VALID,352,VALID,0,
2011-09-20, 02:04:04,VALID,1004.69,VALID,0,INVALID,163.769,VALID,0,VALID,23.9548,VALID,351,VALID,0,
2011-09-20, 02:05:04,VALID,1004.69,VALID,0,INVALID,163.739,VALID,0,VALID,23.9548,VALID,351,VALID,0,
2011-09-20, 02:06:04,VALID,1004.67,VALID,0,INVALID,163.8,VALID,0,VALID,23.9548,VALID,351,VALID,0,
2011-09-20, 02:07:04,VALID,1004.68,VALID,0,INVALID,163.784,VALID,0,VALID,23.9742,VALID,351,VALID,0,
2011-09-20, 02:08:04,VALID,1004.66,VALID,0,INVALID,163.792,VALID,0,VALID,23.9548,VALID,351,VALID,0,
2011-09-20, 02:09:04,VALID,1004.63,VALID,0,INVALID,163.8,VALID,0,VALID,23.9353,VALID,351,VALID,0,
2011-09-20, 02:10:04,VALID,1004.65,VALID,0,INVALID,163.769,VALID,0,VALID,23.9353,VALID,351,VALID,0,
2011-09-20, 02:11:04,VALID,1004.6,VALID,0,INVALID,163.762,VALID,0,VALID,23.914,VALID,351,VALID,0,
2011-09-20, 02:12:04,VALID,1004.6,VALID,0,INVALID,163.762,VALID,0,VALID,23.9353,VALID,348,VALID,0,
2011-09-20, 02:13:04,VALID,1004.59,VALID,0,INVALID,163.777,VALID,0,VALID,23.9353,VALID,347,VALID,0,
2011-09-20, 02:14:04,VALID,1004.58,VALID,0,INVALID,163.792,VALID,0,VALID,23.9548,VALID,11,VALID,0,
2011-09-20, 02:15:04,VALID,1004.6,VALID,0,INVALID,163.807,VALID,0,VALID,23.9548,VALID,354,VALID,0,
2011-09-20, 02:16:04,VALID,1004.63,VALID,0,INVALID,163.792,VALID,0,VALID,23.9548,VALID,355,VALID,0,
2011-09-20, 02:17:04,VALID,1004.63,VALID,0,INVALID,163.754,VALID,0,VALID,23.9548,VALID,267,VALID,0,
2011-09-20, 02:18:04,VALID,1004.62,VALID,0,INVALID,163.792,VALID,0,VALID,23.9548,VALID,338,VALID,0,
2011-09-20, 02:19:04,VALID,1004.6,VALID,0,INVALID,163.784,VALID,0,VALID,23.9548,VALID,341,VALID,0,
2011-09-20, 02:20:04,VALID,1004.6,VALID,0,INVALID,163.784,VALID,0,VALID,23.9742,VALID,340,VALID,0,
2011-09-20, 02:21:04,VALID,1004.6,VALID,0,INVALID,163.8,VALID,0,VALID,23.9955,VALID,351,VALID,0,
2011-09-20, 02:22:04,VALID,1004.6,VALID,0,INVALID,163.792,VALID,0,VALID,23.953,VALID,351,VALID,0,
2011-09-20, 02:23:04,VALID,1004.6,VALID,0,INVALID,163.754,VALID,0,VALID,24.0132,VALID,354,VALID,0,
2011-09-20, 02:24:04,VALID,1004.6,VALID,0,INVALID,163.762,VALID,0,VALID,24.0326,VALID,352,VALID,0,
2011-09-20, 02:25:04,VALID,1004.59,VALID,0,INVALID,163.762,VALID,0.100563,VALID,24.0308,VALID,354,VALID,0,
2011-09-20, 02:26:04,VALID,1004.62,VALID,0,INVALID,163.762,VALID,0,VALID,24.0716,VALID,343,VALID,0,
2011-09-20, 02:27:04,VALID,1004.62,VALID,0,INVALID,163.769,VALID,0,VALID,24.0716,VALID,354,VALID,0,
2011-09-20, 02:28:04,VALID,1004.62,VALID,0,INVALID,163.777,VALID,0,VALID,24.0503,VALID,347,VALID,0,
2011-09-20, 02:29:04,VALID,1004.65,VALID,0,INVALID,163.746,VALID,0,VALID,24.0503,VALID,354,VALID,0,
2011-09-20, 02:30:04,VALID,1004.61,VALID,0,INVALID,163.784,VALID,0,VALID,24.0503,VALID,348,VALID,0,
2011-09-20, 02:31:04,VALID,1004.62,VALID,0,INVALID,163.769,VALID,0,VALID,24.0716,VALID,2,VALID,0,
2011-09-20, 02:32:04,VALID,1004.64,VALID,0,INVALID,163.792,VALID,0,VALID,24.0716,VALID,347,VALID,0,
2011-09-20, 02:33:04,VALID,1004.62,VALID,0,INVALID,163.762,VALID,0,VALID,24.1318,VALID,358,VALID,0,
2011-09-20, 02:34:04,VALID,1004.64,VALID,0,INVALID,163.762,VALID,0.100563,VALID,24.13,VALID,359,VALID,0,
2011-09-20, 02:35:04,VALID,1004.62,VALID,0,INVALID,163.777,VALID,0,VALID,24.13,VALID,352,VALID,0,
2011-09-20, 02:36:04,VALID,1004.63,VALID,0,INVALID,163.762,VALID,0,VALID,24.1281,VALID,355,VALID,0,
2011-09-20, 02:37:04,VALID,1004.62,VALID,0,INVALID,163.739,VALID,0,VALID,24.1689,VALID,347,VALID,0,
2011-09-20, 02:38:04,VALID,1004.62,VALID,0,INVALID,163.746,VALID,0,VALID,24.1671,VALID,4,VALID,0,
2011-09-20, 02:39:04,VALID,1004.64,VALID,0,INVALID,163.754,VALID,0,VALID,24.1671,VALID,359,VALID,0,
2011-09-20, 02:40:04,VALID,1004.61,VALID,0,INVALID,163.739,VALID,0,VALID,24.1884,VALID,341,VALID,0,
2011-09-20, 02:41:04,VALID,1004.6,VALID,0,INVALID,163.762,VALID,0,VALID,24.1865,VALID,343,VALID,0,
2011-09-20, 02:42:04,VALID,1004.6,VALID,0,INVALID,163.716,VALID,0,VALID,24.2078,VALID,323,VALID,0,
2011-09-20, 02:43:04,VALID,1004.62,VALID,0,INVALID,163.746,VALID,0,VALID,24.2273,VALID,320,VALID,0,
2011-09-20, 02:44:04,VALID,1004.66,VALID,0,INVALID,163.769,VALID,0,VALID,24.2078,VALID,346,VALID,0,
2011-09-20, 02:45:04,VALID,1004.66,VALID,0,INVALID,163.746,VALID,0.100563,VALID,24.2078,VALID,352,VALID,0,
2011-09-20, 02:46:04,VALID,1004.64,VALID,0,INVALID,163.754,VALID,0,VALID,24.2078,VALID,352,VALID,0,
2011-09-20, 02:47:04,VALID,1004.63,VALID,0,INVALID,163.731,VALID,0,VALID,24.2486,VALID,337,VALID,0,
2011-09-20, 02:48:04,VALID,1004.63,VALID,0,INVALID,163.762,VALID,0,VALID,24.2273,VALID,335,VALID,0,
2011-09-20, 02:49:04,VALID,1004.63,VALID,0,INVALID,163.754,VALID,0,VALID,24.2273,VALID,352,VALID,0,
2011-09-20, 02:50:04,VALID,1004.63,VALID,0,INVALID,163.746,VALID,0,VALID,24.2078,VALID,346,VALID,0,
2011-09-20, 02:51:04,VALID,1004.64,VALID,0,INVALID,163.754,VALID,0,VALID,24.2078,VALID,350,VALID,0,
2011-09-20, 02:52:04,VALID,1004.64,VALID,0,INVALID,163.746,VALID,0,VALID,24.1884,VALID,352,VALID,0,
2011-09-20, 02:53:04,VALID,1004.65,VALID,0,INVALID,163.754,VALID,0,VALID,24.1884,VALID,1,VALID,0,
2011-09-20, 02:54:04,VALID,1004.66,VALID,0,INVALID,163.746,VALID,0,VALID,24.2078,VALID,3,VALID,0,
2011-09-20, 02:55:04,VALID,1004.67,VALID,0,INVALID,163.754,VALID,0,VALID,24.2078,VALID,338,VALID,0,
2011-09-20, 02:56:04,VALID,1004.68,VALID,0,INVALID,163.739,VALID,0,VALID,24.2273,VALID,330,VALID,0,
2011-09-20, 02:57:04,VALID,1004.68,VALID,0,INVALID,163.777,VALID,0,VALID,24.2273,VALID,325,VALID,0,
2011-09-20, 02:58:04,VALID,1004.66,VALID,0,INVALID,163.754,VALID,0,VALID,24.206,VALID,325,VALID,0,
2011-09-20, 02:59:04,VALID,1004.68,VALID,0,INVALID,163.762,VALID,0,VALID,24.2273,VALID,238,VALID,0,
2011-09-20, 03:00:04,VALID,1004.66,VALID,0,INVALID,163.746,VALID,0,VALID,24.1865,VALID,329,VALID,0,
2011-09-20, 03:01:04,VALID,1004.67,VALID,0,INVALID,163.769,VALID,0,VALID,24.2468,VALID,336,VALID,0,
2011-09-20, 03:02:04,VALID,1004.67,VALID,0,INVALID,163.739,VALID,0,VALID,24.2681,VALID,348,VALID,0,
2011-09-20, 03:03:04,VALID,1004.63,VALID,0,INVALID,163.723,VALID,0,VALID,24.2875,VALID,335,VALID,0,
2011-09-20, 03:04:04,VALID,1004.64,VALID,0,INVALID,163.746,VALID,0,VALID,24.2662,VALID,343,VALID,0,
2011-09-20, 03:05:04,VALID,1004.61,VALID,0,INVALID,163.739,VALID,0,VALID,24.307,VALID,285,VALID,0,
2011-09-20, 03:06:04,VALID,1004.63,VALID,0,INVALID,163.754,VALID,0,VALID,24.2857,VALID,345,VALID,0,
2011-09-20, 03:07:04,VALID,1004.58,VALID,0,INVALID,163.731,VALID,0,VALID,24.2857,VALID,8,VALID,0,
2011-09-20, 03:08:04,VALID,1004.58,VALID,0,INVALID,163.754,VALID,0,VALID,24.2857,VALID,16,VALID,0,
2011-09-20, 03:09:04,VALID,1004.58,VALID,0,INVALID,163.769,VALID,0,VALID,24.2644,VALID,272,VALID,0,
2011-09-20, 03:10:04,VALID,1004.6,VALID,0,INVALID,163.739,VALID,0,VALID,24.307,VALID,341,VALID,0,
2011-09-20, 03:11:04,VALID,1004.6,VALID,0,INVALID,163.769,VALID,0,VALID,24.2857,VALID,240,VALID,0,
2011-09-20, 03:12:04,VALID,1004.6,VALID,0,INVALID,163.762,VALID,0,VALID,24.2875,VALID,353,VALID,0,
2011-09-20, 03:13:04,VALID,1004.62,VALID,0,INVALID,163.731,VALID,0,VALID,24.2468,VALID,336,VALID,0,
2011-09-20, 03:14:04,VALID,1004.63,VALID,0,INVALID,163.754,VALID,0,VALID,24.2875,VALID,357,VALID,0,
2011-09-20, 03:15:04,VALID,1004.6,VALID,0,INVALID,163.731,VALID,0,VALID,24.2468,VALID,326,VALID,0,
2011-09-20, 03:16:04,VALID,1004.64,VALID,0,INVALID,163.739,VALID,0,VALID,24.2468,VALID,348,VALID,0,
2011-09-20, 03:17:04,VALID,1004.63,VALID,0,INVALID,163.746,VALID,0,VALID,24.2662,VALID,345,VALID,0,
2011-09-20, 03:18:04,VALID,1004.66,VALID,0,INVALID,163.762,VALID,0,VALID,24.2662,VALID,4,VALID,0,
2011-09-20, 03:19:04,VALID,1004.69,VALID,0,INVALID,163.739,VALID,0,VALID,24.2662,VALID,354,VALID,0,
2011-09-20, 03:20:04,VALID,1004.69,VALID,0,INVALID,163.746,VALID,0,VALID,24.2662,VALID,355,VALID,0,
2011-09-20, 03:21:04,VALID,1004.73,VALID,0,INVALID,163.746,VALID,0,VALID,24.2662,VALID,353,VALID,0,
2011-09-20, 03:22:04,VALID,1004.7,VALID,0,INVALID,163.739,VALID,0,VALID,24.307,VALID,353,VALID,0,
2011-09-20, 03:23:04,VALID,1004.73,VALID,0,INVALID,163.731,VALID,0,VALID,24.2857,VALID,344,VALID,0,
2011-09-20, 03:24:04,VALID,1004.72,VALID,0,INVALID,163.762,VALID,0,VALID,24.307,VALID,354,VALID,0,
2011-09-20, 03:25:04,VALID,1004.74,VALID,0,INVALID,163.746,VALID,0,VALID,24.3052,VALID,347,VALID,0,
2011-09-20, 03:26:04,VALID,1004.71,VALID,0,INVALID,163.723,VALID,0,VALID,24.3052,VALID,348,VALID,0,
2011-09-20, 03:27:04,VALID,1004.71,VALID,0,INVALID,163.762,VALID,0,VALID,24.3246,VALID,339,VALID,0,
2011-09-20, 03:28:04,VALID,1004.72,VALID,0,INVALID,163.731,VALID,0,VALID,24.3246,VALID,342,VALID,0,
2011-09-20, 03:29:04,VALID,1004.74,VALID,0,INVALID,163.731,VALID,0,VALID,24.3441,VALID,343,VALID,0,
2011-09-20, 03:30:04,VALID,1004.74,VALID,0,INVALID,163.723,VALID,0,VALID,24.3441,VALID,350,VALID,0,
2011-09-20, 03:31:04,VALID,1004.72,VALID,0,INVALID,163.762,VALID,0,VALID,24.3636,VALID,337,VALID,0,
2011-09-20, 03:32:04,VALID,1004.72,VALID,0,INVALID,163.708,VALID,0,VALID,24.383,VALID,348,VALID,0,
2011-09-20, 03:33:04,VALID,1004.73,VALID,0,INVALID,163.762,VALID,0,VALID,24.3636,VALID,337,VALID,0,
2011-09-20, 03:34:04,VALID,1004.73,VALID,0,INVALID,163.731,VALID,0.100563,VALID,24.3636,VALID,359,VALID,0,
2011-09-20, 03:35:04,VALID,1004.71,VALID,0,INVALID,163.746,VALID,0,VALID,24.383,VALID,349,VALID,0,
2011-09-20, 03:36:04,VALID,1004.68,VALID,0,INVALID,163.739,VALID,0,VALID,24.4238,VALID,350,VALID,0,
2011-09-20, 03:37:04,VALID,1004.69,VALID,0,INVALID,163.754,VALID,0.100563,VALID,24.4025,VALID,350,VALID,0,
2011-09-20, 03:38:04,VALID,1004.68,VALID,0,INVALID,163.701,VALID,0.100563,VALID,24.4238,VALID,352,VALID,0,
2011-09-20, 03:39:04,VALID,1004.71,VALID,0,INVALID,163.746,VALID,0,VALID,24.4025,VALID,352,VALID,0,
2011-09-20, 03:40:04,VALID,1004.68,VALID,0,INVALID,163.716,VALID,0,VALID,24.422,VALID,344,VALID,0,
2011-09-20, 03:41:04,VALID,1004.7,VALID,0,INVALID,163.762,VALID,0,VALID,24.422,VALID,356,VALID,0,
2011-09-20, 03:42:04,VALID,1004.69,VALID,0,INVALID,163.762,VALID,0,VALID,24.4238,VALID,342,VALID,0,
2011-09-20, 03:43:04,VALID,1004.68,VALID,0,INVALID,163.739,VALID,0,VALID,24.4025,VALID,343,VALID,0,
2011-09-20, 03:44:04,VALID,1004.68,VALID,0,INVALID,163.731,VALID,0,VALID,24.422,VALID,358,VALID,0,
2011-09-20, 03:45:04,VALID,1004.71,VALID,0,INVALID,163.754,VALID,0,VALID,24.4628,VALID,360,VALID,0,
2011-09-20, 03:46:04,VALID,1004.66,VALID,0,INVALID,163.731,VALID,0,VALID,24.4414,VALID,354,VALID,0,
2011-09-20, 03:47:04,VALID,1004.69,VALID,0,INVALID,163.754,VALID,0,VALID,24.4804,VALID,357,VALID,0,
2011-09-20, 03:48:04,VALID,1004.68,VALID,0,INVALID,163.746,VALID,0,VALID,24.4609,VALID,352,VALID,0,
2011-09-20, 03:49:04,VALID,1004.66,VALID,0,INVALID,163.716,VALID,0,VALID,24.4822,VALID,349,VALID,0,
2011-09-20, 03:50:04,VALID,1004.69,VALID,0,INVALID,163.723,VALID,0,VALID,24.4804,VALID,313,VALID,0,
2011-09-20, 03:51:04,VALID,1004.65,VALID,0,INVALID,163.716,VALID,0,VALID,24.5017,VALID,313,VALID,0,
2011-09-20, 03:52:04,VALID,1004.64,VALID,0,INVALID,163.723,VALID,0,VALID,24.4804,VALID,360,VALID,0,
2011-09-20, 03:53:04,VALID,1004.63,VALID,0,INVALID,163.716,VALID,0,VALID,24.4998,VALID,2,VALID,0,
2011-09-20, 03:54:04,VALID,1004.6,VALID,0,INVALID,163.723,VALID,0,VALID,24.4998,VALID,7,VALID,0,